Tracking 30995 objects as of 5-Jul-2025
HD Live streaming from Space Station
objects crossing your sky now

OBJECT P

Track OBJECT P now!
10-day predictions


NORAD ID: 54695
Int'l Code: 2022-167P
Perigee: 491.6 km
Apogee: 500.4 km
Inclination: 97.7 °
Period: 94.4 minutes
Semi major axis: 6867 km
RCS: Unknown
Launch date: December 9, 2022
Source: People's Republic of China (PRC)
Launch site: Yellow Sea Launch Area, China (YSLA)
Your satellite tracking list
Your tracking list is empty




NASA's NSSDC Master Catalog

Two Line Element Set (TLE):
1 54695U 22167P   25186.48255662  .00008230  00000-0  32629-3 0  9995
2 54695  97.6557 339.4804 0006431 259.2830 100.7684 15.25640152142367
Source of the keplerian elements: AFSPC